Regional Weather Roundup
Issued by NWS

Home | Current Version | Previous Version | Text Only | Print | Product List | Glossary Off
Versions: 1 2 3 4 5 6 7 8 9 10 11 12 13 14 15 16 17 18 19 20 21 22 23 24 25 26 27 28 29 30 31 32 33 34 35 36 37 38 39 40 41 42 43 44 45 46 47 48 49 50

000
ASUS43 KDTX 291701
RWRMI
MICHIGAN HOURLY REGIONAL WEATHER ROUNDUP
NATIONAL WEATHER SERVICE DETROIT/PONTIAC MI
100 PM EDT FRI APR 29 2016

NOTE: "FAIR" INDICATES FEW OR NO CLOUDS BELOW 12,000 FEET WITH NO
SIGNIFICANT WEATHER AND/OR OBSTRUCTION TO VISIBILITY.

MIZ047>049-052>055-059>063-066>070-074>076-081>083-291800-
SOUTHEAST LOWER MICHIGAN

CITY           SKY/WX    TMP DP  RH WIND       PRES   REMARKS
ADRIAN         CLOUDY    51  36  56 NE8       30.07F
ALMA           CLOUDY    46  37  73 NE8       30.12S
ANN ARBOR      CLOUDY    50  35  56 N5        30.07F
BAD AXE        CLOUDY    47  38  69 S3        30.11F
CARO           LGT RAIN  42  36  79 NE3       30.11R
DETROIT CITY   CLOUDY    44  37  76 N8        30.09F
DETROIT        CLOUDY    46  36  68 CALM      30.09S
FLINT          CLOUDY    47  37  68 NE10      30.11S
GROSSE ILE     CLOUDY    46  37  71 NE7       30.07F
HILLSDALE      CLOUDY    48  38  68 NW3       30.06F
HOWELL         CLOUDY    45  35  67 N7        30.09R

CITY           SKY/WX    TMP DP  RH WIND       PRES   REMARKS
JACKSON        CLOUDY    50  36  58 NE8       30.07F
LAMBERTVILLE   CLOUDY    53  38  57 NW6       30.06F
LANSING        CLOUDY    46  38  73 NE9       30.10S
LAPEER         CLOUDY    45  37  73 E7        30.10R
MASON          CLOUDY    47  37  67 NE8       30.08F
MONROE         CLOUDY    48  40  71 N7        30.07F
MT. CLEMENS    LGT RAIN  42  40  91 NE7       30.08S FOG
PONTIAC        CLOUDY    43  37  79 N6        30.08R
PORT HOPE        N/A     42  36  79 E5        30.11S
PORT HURON     CLOUDY    45  34  65 NE12      30.09F
TRI CITIES     CLOUDY    50  32  50 NE13      30.12R
MIDLAND        CLOUDY    49  33  52 NE14      30.11F
TROY           CLOUDY    44  37  78 NE8       30.10F
SAGINAW HB     CLOUDY    45  37  76 E10       30.11S
$$
MIZ043>046-050>051-056>058-064>065-071>073-077>080-291800-
SOUTHWEST LOWER MICHIGAN

CITY           SKY/WX    TMP DP  RH WIND       PRES   REMARKS
BATTLE CREEK   CLOUDY    49  37  63 N6        30.09S
BENTON HARBOR  CLOUDY    47  43  86 N7        30.07F FOG
BIG RAPIDS     CLOUDY    47  33  59 NE5       30.09F
COLDWATER      CLOUDY    49  40  70 CALM      30.06F
FREMONT        CLOUDY    44  36  74 E6        30.12R
HOLLAND        CLOUDY    47  38  71 NE6       30.12R
GRAND RAPIDS   CLOUDY    46  37  71 E5        30.11R
IONIA          CLOUDY    43  37  78 E6        30.11R
KALAMAZOO      CLOUDY    48  39  71 CALM      30.09S
LUDINGTON      PTSUNNY   50  37  60 SW7       30.11F
MARSHALL       CLOUDY    49  37  64 N3        30.08S
MOUNT PLEASANT CLOUDY    49  32  52 E9        30.10R
MUSKEGON       CLOUDY    47  36  65 E8        30.12R
$$
MIZ016>042-291800-
NORTHERN LOWER MICHIGAN

CITY           SKY/WX    TMP DP  RH WIND       PRES   REMARKS
ALPENA         CLOUDY    50  31  48 VRB7      30.14S
BEAVER ISLAND  SUNNY     53  29  40 E8        30.14F
BELLAIRE       SUNNY     56  27  33 N6        30.11F
CADILLAC       CLOUDY    52  31  46 NE7G16    30.07F
CHARLEVOIX     SUNNY     48  34  58 N9        30.15F
FRANKFORT      SUNNY     54  33  45 NE6       30.10F
GAYLORD        CLOUDY    49  27  42 E6        30.11F
GRAYLING       MOSUNNY   54  27  36 E9        30.11S
HARBOR SPRINGS SUNNY     55  30  39 E12G18    30.12F
HOUGHTON LAKE  PTSUNNY   55  31  39 E9        30.09F
MANISTEE       MOSUNNY   52  28  40 SE6       30.10F
OSCODA         CLOUDY    49  32  52 NE9       30.13R
PELLSTON       SUNNY     52  28  39 E8G17     30.14F
ROGERS CITY    CLOUDY    43  32  65 NE8       30.16F
TRAVERSE CITY  MOSUNNY   52  32  46 N8        30.10F
$$
MIZ007>008-015-291800-
EASTERN UPPER MICHIGAN

CITY           SKY/WX    TMP DP  RH WIND       PRES   REMARKS
KINROSS          N/A     54  28  37 N3        30.14F
MACKINAC ISLAN SUNNY     48  28  45 CALM      30.15F
NEWBERRY       SUNNY     55  31  39 W3        30.12F
S. S. MARIE    SUNNY     54  29  38 NW5       30.13F
MUNISING         N/A     44  34  67 N7        30.17S
$$
MIZ004>006-011>014-085-291800-
CENTRAL UPPER MICHIGAN

CITY           SKY/WX    TMP DP  RH WIND       PRES   REMARKS
MANISTIQUE     SUNNY     50  27  40 S7        30.14S
ESCANABA       SUNNY     52  23  32 SE8       30.14F
MENOMINEE      CLOUDY    46  30  53 E12       30.14F
SAWYER-GWINN   SUNNY     50  25  37 N9G17     30.16F
$$
MIZ001>003-009>011-084-291800-
WESTERN UPPER MICHIGAN

CITY           SKY/WX    TMP DP  RH WIND       PRES   REMARKS
IRON MOUNTAIN  CLOUDY    53  27  36 VRB7      30.12F
HOUGHTON       SUNNY     50  27  40 NW7       30.15F
COPPER HARBOR    N/A     40  36  86 NE7       30.18S
IRONWOOD         N/A     48  28  46 N13       30.14S
$$

ABBREVIATIONS USED IN REMARKS
   TC - TEMPERATURE IN CELSIUS
  WCI - WIND CHILL INDEX
   HX - HEAT INDEX
  VSB - VISIBILITY




USA.gov is the U.S. government's official web portal to all federal, state and local government web resources and services.